MPEC 2008-J14 : 2008 JE

The following Minor Planet Electronic Circular may be linked-to from your own Web pages, but must not otherwise be redistributed electronically.


Read MPEC 2008-J13 Read MPEC 2008-J15


M.P.E.C. 2008-J14                                Issued 2008 May 2, 16:46 UT

     The Minor Planet Electronic Circulars contain information on unusual
         minor planets and routine data on comets.  They are published
   on behalf of Commission 20 of the International Astronomical Union by the
          Minor Planet Center, Smithsonian Astrophysical Observatory,
                          Cambridge, MA 02138, U.S.A.

             Prepared using the Tamkin Foundation Computer Network

                              MPC@CFA.HARVARD.EDU
          URL http://www.cfa.harvard.edu/iau/mpc.html  ISSN 1523-6714

                                    2008 JE

Observations:
     K08J00E* C2008 05 01.23222 14 22 12.18 -20 21 57.2          18.9 V EJ014703
     K08J00E  C2008 05 01.23716 14 22 08.65 -20 22 44.9          18.6 V EJ014703
     K08J00E  C2008 05 01.24212 14 22 05.08 -20 23 32.2          18.8 V EJ014703
     K08J00E  C2008 05 01.24706 14 22 01.48 -20 24 20.1          19.6 V EJ014703
     K08J00E  C2008 05 01.30516 14 21 19.87 -20 33 28.5          19.5 R EJ014854
     K08J00E  C2008 05 01.30952 14 21 16.54 -20 34 09.1          19.6 R EJ014854
     K08J00E  C2008 05 01.31582 14 21 11.92 -20 35 10.1          19.3 V EJ014703
     K08J00E  C2008 05 01.32183 14 21 07.67 -20 36 04.8          19.3 V EJ014703
     K08J00E  C2008 05 01.32787 14 21 03.17 -20 37 00.8          19.4 V EJ014703
     K08J00E  C2008 05 02.04088 14 13 11.35 -22 30 53.9          19.0   EJ014204
     K08J00E  C2008 05 02.04847 14 13 05.69 -22 32 05.5                 EJ014204
     K08J00E tC2008 05 02.27758 14 10 35.94 -23 08 56.9          19.6 V EJ014291
     K08J00E tC2008 05 02.29966 14 10 18.52 -23 12 31.7          19.8 V EJ014291
     K08J00E  C2008 05 02.30451 14 10 14.34 -23 13 22.1          19.4 V EJ014G96
     K08J00E  C2008 05 02.30505 14 10 13.90 -23 13 27.4          19.5 V EJ014G96
     K08J00E  C2008 05 02.30559 14 10 13.47 -23 13 32.5          19.4 V EJ014G96
     K08J00E  C2008 05 02.30613 14 10 13.08 -23 13 38.0          19.2 V EJ014G96
     K08J00E tC2008 05 02.31201 14 10 08.65 -23 14 33.1          20.0 V EJ014291

Observer details:
204 Schiaparelli Observatory.  Observer L. Buzzi.  0.60-m f/4.64 reflector
    + CCD.
291 LPL/Spacewatch II.  Observer J. V. Scotti.  1.8-m f/2.7 reflector + CCD.
703 Catalina Sky Survey.  Observer A. Boattini.  Measurers E. C. Beshore,
    A. Boattini, G. J. Garradd, A. R. Gibbs, A. D. Grauer, R. E. Hill,
    R. A. Kowalski, S. M. Larson, R. H. McNaught.  0.68-m Schmidt + CCD.
854 Sabino Canyon Observatory, Tucson.  Observer J. E. McGaha.  0.36-m f/10.0
    Schmidt-Cassegrain + CCD.
G96 Mt. Lemmon Survey.  Observer R. E. Hill.  Measurers E. C. Beshore,
    A. Boattini, G. J. Garradd, A. R. Gibbs, A. D. Grauer, R. E. Hill,
    R. A. Kowalski, S. M. Larson, R. H. McNaught.  1.5-m reflector + CCD.

Orbital elements:
2008 JE                                                  Earth MOID = 0.0319 AU
Epoch 2008 May 14.0 TT = JDT 2454600.5                  MPC
M 245.68252              (2000.0)            P               Q
n   1.00922033     Peri.  316.80787     +0.99455494     +0.07012527
a   0.9843406      Node    39.36783     -0.02450533     +0.87635944
e   0.0928800      Incl.    6.98080     -0.10129144     +0.47652552
P   0.98           H   25.8           G   0.15           U   7
Residuals in seconds of arc
080501 703  0.2+  1.0+    080501 703  0.1-  1.7-    080502 291  1.0+  1.1+
080501 703  0.1+  0.5+    080501 703  1.4+  0.2-    080502 G96  0.9-  1.0-
080501 703  0.3-  0.4+    080501 703  0.4-  0.2+    080502 G96  1.1-  1.1-
080501 703  1.2-  0.4-    080502 204  0.1-  0.2-    080502 G96  1.1-  0.9-
080501 854 (2.8+  0.2-)   080502 204  0.1-  0.1+    080502 G96  0.6-  1.2-
080501 854  0.4+  0.0     080502 291  0.2+  0.2+    080502 291  0.2-  0.3-

Ephemeris:
2008 JE                  a,e,i = 0.98, 0.09, 7                   q = 0.8929
Date    TT    R. A. (2000) Decl.     Delta      r     Elong.  Phase     V
2008 04 24    15 16.42   -05 16.3    0.0489   1.052   161.3    17.8    20.3
2008 04 29    14 43.16   -14 50.4    0.0400   1.047   175.9     4.0    19.3
2008 05 04    13 48.99   -27 51.4    0.0345   1.041   162.4    17.1    19.5
2008 05 09    12 27.04   -40 55.6    0.0337   1.035   138.8    40.0    20.1
2008 05 14    10 48.60   -48 30.8    0.0374   1.029   117.7    60.4    20.9
2008 05 19    09 23.41   -50 10.4    0.0441   1.022   101.9    75.7    21.7
2008 05 24    08 23.85   -49 01.5    0.0524   1.014    90.4    86.6    22.5

Sonia Keys                   (C) Copyright 2008 MPC           M.P.E.C. 2008-J14

Read MPEC 2008-J13 Read MPEC 2008-J15


Our Web policy. Index to the CBAT/MPC/ICQ pages.

MPC

Valid HTML 4.01!